User: anonymous   Login
Location: Carabito
(9.8355°N, 67.9249°W)
Time: 20:31:51
(UTC+00:00)
Language:

MOS 1-B - Orbit

View from above orbital plane
View from above orbital plane
View from above satellite
View from above satellite

Ground track
Ground track

The orbit data is extracted from the following two-line orbital elements,

1 20478U 90013A   24199.59263724 -.00000011  00000-0  25889-4 0  9996
2 20478  99.3213 245.3402 0004623 292.7362  67.3310 13.95805339674425
Epoch (UTC): 17 July 2024 14:13:23
Eccentricity: 0.0004623
inclination: 99.3213°
perigee height: 905 km
apogee height: 912 km
right ascension of ascending node: 245.3402°
argument of perigee: 292.7362°
revolutions per day: 13.95805339
mean anomaly at epoch: 67.3310°
orbit number at epoch: 67442

The dashed part of the orbit path shows where the satellite is in the earth's shadow,  

DLR